Time,TemperatureF,DewpointF,PressureIn,WindDirection,WindDirectionDegrees,WindSpeedMPH,WindSpeedGustMPH,Humidity,HourlyPrecipIn,Conditions,Clouds,dailyrainin,SoftwareType,DateUTC
2013-08-23 00:02:00,53.4,51.4,29.30,SSE,158,0.0,0.0,93,0.00,,,0.00,WUHU216HW,2013-08-23 08:02:00,
2013-08-23 00:07:00,53.4,51.4,29.30,SSE,158,0.0,0.0,93,0.00,,,0.00,WUHU216HW,2013-08-23 08:07:00,
2013-08-23 00:12:00,53.4,51.4,29.31,SSE,158,0.0,0.0,93,0.00,,,0.00,WUHU216HW,2013-08-23 08:12:00,
2013-08-23 00:17:00,53.4,51.4,29.30,SSE,158,0.0,0.0,93,0.00,,,0.00,WUHU216HW,2013-08-23 08:17:00,
2013-08-23 00:22:00,53.4,51.4,29.30,SSE,158,0.4,0.4,93,0.00,,,0.00,WUHU216HW,2013-08-23 08:22:00,
2013-08-23 00:27:00,53.4,51.4,29.30,SSE,158,0.0,0.4,93,0.00,,,0.00,WUHU216HW,2013-08-23 08:27:00,
2013-08-23 00:32:00,53.4,51.4,29.30,SSE,158,0.0,0.0,93,0.00,,,0.00,WUHU216HW,2013-08-23 08:32:00,
2013-08-23 00:37:00,53.4,51.4,29.30,SSE,158,0.0,0.0,93,0.00,,,0.00,WUHU216HW,2013-08-23 08:37:00,
2013-08-23 00:42:00,53.4,51.4,29.30,SSE,158,0.0,0.0,93,0.00,,,0.00,WUHU216HW,2013-08-23 08:42:00,
2013-08-23 00:47:00,53.4,51.4,29.30,SSE,158,0.0,0.0,93,0.00,,,0.00,WUHU216HW,2013-08-23 08:47:00,
2013-08-23 00:52:00,53.4,51.4,29.30,SSE,158,0.0,0.0,93,0.00,,,0.00,WUHU216HW,2013-08-23 08:52:00,
2013-08-23 00:57:00,53.4,51.4,29.30,SSE,158,0.0,0.0,93,0.00,,,0.00,WUHU216HW,2013-08-23 08:57:00,
2013-08-23 01:02:00,53.4,51.4,29.30,SSE,158,0.0,0.0,93,0.00,,,0.00,WUHU216HW,2013-08-23 09:02:00,
2013-08-23 01:07:00,53.4,51.4,29.30,SE,135,0.0,0.0,93,0.00,,,0.00,WUHU216HW,2013-08-23 09:07:00,
2013-08-23 01:12:00,53.2,51.2,29.29,SE,135,0.0,0.0,93,0.00,,,0.00,WUHU216HW,2013-08-23 09:12:00,
2013-08-23 01:17:00,53.4,51.4,29.29,SE,135,0.0,0.0,93,0.00,,,0.00,WUHU216HW,2013-08-23 09:17:00,
2013-08-23 01:22:00,53.2,51.2,29.29,SE,135,0.0,0.0,93,0.00,,,0.00,WUHU216HW,2013-08-23 09:22:00,
2013-08-23 01:27:00,53.2,51.2,29.29,SE,135,0.0,0.0,93,0.00,,,0.00,WUHU216HW,2013-08-23 09:27:00,
2013-08-23 01:32:00,53.4,51.4,29.29,SE,135,0.0,0.0,93,0.00,,,0.00,WUHU216HW,2013-08-23 09:32:00,
2013-08-23 01:37:00,53.4,51.4,29.29,SE,135,0.0,0.0,93,0.00,,,0.00,WUHU216HW,2013-08-23 09:37:00,
2013-08-23 01:42:00,53.2,51.2,29.29,SE,135,0.0,0.0,93,0.00,,,0.00,WUHU216HW,2013-08-23 09:42:00,
2013-08-23 01:47:00,53.4,51.4,29.29,SE,135,0.0,0.0,93,0.00,,,0.00,WUHU216HW,2013-08-23 09:47:00,
2013-08-23 01:52:00,53.2,51.2,29.29,SE,135,0.0,0.0,93,0.00,,,0.00,WUHU216HW,2013-08-23 09:52:00,
2013-08-23 01:57:00,53.2,51.2,29.29,SE,135,0.0,0.8,93,0.00,,,0.00,WUHU216HW,2013-08-23 09:57:00,
2013-08-23 02:02:00,53.2,51.2,29.29,SSE,158,0.0,0.8,93,0.00,,,0.00,WUHU216HW,2013-08-23 10:02:00,
2013-08-23 02:07:00,53.2,51.2,29.29,SE,135,0.0,0.0,93,0.00,,,0.00,WUHU216HW,2013-08-23 10:07:00,
2013-08-23 02:12:00,53.4,51.4,29.29,SE,135,0.0,0.0,93,0.00,,,0.00,WUHU216HW,2013-08-23 10:12:00,
2013-08-23 02:17:00,53.4,51.4,29.29,SSE,158,0.0,0.0,93,0.00,,,0.00,WUHU216HW,2013-08-23 10:17:00,
2013-08-23 02:22:00,53.4,51.4,29.29,SE,135,0.0,0.0,93,0.00,,,0.00,WUHU216HW,2013-08-23 10:22:00,
2013-08-23 02:27:00,53.4,51.4,29.29,SE,135,0.0,0.0,93,0.00,,,0.00,WUHU216HW,2013-08-23 10:27:00,
2013-08-23 02:32:00,53.4,51.4,29.29,SSE,158,0.0,0.0,93,0.00,,,0.00,WUHU216HW,2013-08-23 10:32:00,
2013-08-23 02:37:00,53.4,51.6,29.29,SSE,158,0.0,0.8,94,0.00,,,0.00,WUHU216HW,2013-08-23 10:37:00,
2013-08-23 02:42:00,53.4,51.4,29.28,SSE,158,0.2,0.8,93,0.00,,,0.00,WUHU216HW,2013-08-23 10:42:00,
2013-08-23 02:47:00,53.4,51.6,29.28,SSE,158,0.0,1.5,94,0.00,,,0.00,WUHU216HW,2013-08-23 10:47:00,
2013-08-23 02:52:00,53.4,51.6,29.27,SSE,158,2.6,2.6,94,0.00,,,0.00,WUHU216HW,2013-08-23 10:52:00,
2013-08-23 02:57:00,53.4,51.6,29.27,SSE,158,0.2,2.6,94,0.00,,,0.00,WUHU216HW,2013-08-23 10:57:00,
2013-08-23 03:02:00,53.4,51.6,29.27,SSE,158,0.0,2.6,94,0.00,,,0.00,WUHU216HW,2013-08-23 11:02:00,
2013-08-23 03:07:00,53.4,51.6,29.27,SSE,158,0.0,2.4,94,0.00,,,0.00,WUHU216HW,2013-08-23 11:07:00,
2013-08-23 03:12:00,53.4,51.6,29.27,SSE,158,0.0,0.0,94,0.00,,,0.00,WUHU216HW,2013-08-23 11:12:00,
2013-08-23 03:17:00,53.4,51.6,29.27,SSE,158,0.0,0.0,94,0.00,,,0.00,WUHU216HW,2013-08-23 11:17:00,
2013-08-23 03:22:00,53.4,51.6,29.27,SSE,158,0.0,0.0,94,0.00,,,0.00,WUHU216HW,2013-08-23 11:22:00,
2013-08-23 03:27:00,53.4,51.6,29.27,SSE,158,0.0,0.0,94,0.00,,,0.00,WUHU216HW,2013-08-23 11:27:00,
2013-08-23 03:32:00,53.4,51.6,29.27,SSE,158,0.0,0.0,94,0.00,,,0.00,WUHU216HW,2013-08-23 11:32:00,
2013-08-23 03:37:00,53.4,51.6,29.27,SSE,158,0.0,0.0,94,0.00,,,0.00,WUHU216HW,2013-08-23 11:37:00,
2013-08-23 03:42:00,53.4,51.6,29.26,SSE,158,0.0,0.0,94,0.00,,,0.00,WUHU216HW,2013-08-23 11:42:00,
2013-08-23 03:47:00,53.4,51.6,29.26,SSE,158,0.0,0.0,94,0.00,,,0.00,WUHU216HW,2013-08-23 11:47:00,
2013-08-23 03:52:00,53.2,51.5,29.26,SSE,158,0.0,0.0,94,0.00,,,0.00,WUHU216HW,2013-08-23 11:52:00,
2013-08-23 03:57:00,53.2,51.5,29.26,SSE,158,0.0,0.0,94,0.00,,,0.00,WUHU216HW,2013-08-23 11:57:00,
2013-08-23 04:02:00,53.2,51.5,29.26,SSE,158,0.0,0.0,94,0.00,,,0.00,WUHU216HW,2013-08-23 12:02:00,
2013-08-23 04:07:00,53.2,51.5,29.26,SSE,158,0.0,0.0,94,0.00,,,0.00,WUHU216HW,2013-08-23 12:07:00,
2013-08-23 04:12:00,53.2,51.5,29.26,SSE,158,0.2,0.2,94,0.00,,,0.00,WUHU216HW,2013-08-23 12:12:00,
2013-08-23 04:17:00,53.0,51.3,29.25,SSE,158,0.0,0.2,94,0.00,,,0.00,WUHU216HW,2013-08-23 12:17:00,
2013-08-23 04:22:00,52.8,50.8,29.25,SSE,158,0.0,0.0,93,0.00,,,0.00,WUHU216HW,2013-08-23 12:22:00,
2013-08-23 04:27:00,52.8,50.8,29.25,SSE,158,0.0,0.0,93,0.00,,,0.00,WUHU216HW,2013-08-23 12:27:00,
2013-08-23 04:32:00,52.8,50.8,29.25,SSE,158,0.0,0.0,93,0.00,,,0.00,WUHU216HW,2013-08-23 12:32:00,
2013-08-23 04:37:00,52.8,50.8,29.25,SSE,158,0.0,0.0,93,0.00,,,0.00,WUHU216HW,2013-08-23 12:37:00,
2013-08-23 04:42:00,52.8,50.8,29.26,SSE,158,0.0,0.0,93,0.00,,,0.00,WUHU216HW,2013-08-23 12:42:00,
2013-08-23 04:47:00,52.8,51.1,29.25,SSE,158,0.0,0.0,94,0.00,,,0.00,WUHU216HW,2013-08-23 12:47:00,
2013-08-23 04:52:00,52.8,51.1,29.25,SSE,158,0.0,0.0,94,0.00,,,0.00,WUHU216HW,2013-08-23 12:52:00,
2013-08-23 04:57:00,52.8,51.1,29.25,SSE,158,0.0,0.0,94,0.00,,,0.00,WUHU216HW,2013-08-23 12:57:00,
2013-08-23 05:02:00,52.8,51.1,29.24,SSE,158,0.0,0.0,94,0.00,,,0.00,WUHU216HW,2013-08-23 13:02:00,
2013-08-23 05:07:00,52.8,51.1,29.24,SSE,158,0.0,0.0,94,0.00,,,0.00,WUHU216HW,2013-08-23 13:07:00,
2013-08-23 05:12:00,52.7,50.9,29.24,SSE,158,0.0,0.0,94,0.00,,,0.00,WUHU216HW,2013-08-23 13:12:00,
2013-08-23 05:17:00,52.5,50.7,29.24,SSE,158,0.0,0.0,94,0.00,,,0.00,WUHU216HW,2013-08-23 13:17:00,
2013-08-23 05:22:00,52.5,50.7,29.24,SSE,158,0.0,0.0,94,0.00,,,0.00,WUHU216HW,2013-08-23 13:22:00,
2013-08-23 05:27:00,52.3,50.6,29.24,South,180,0.0,0.0,94,0.00,,,0.00,WUHU216HW,2013-08-23 13:27:00,
2013-08-23 05:32:00,52.1,50.1,29.24,SSW,203,0.0,4.4,93,0.00,,,0.00,WUHU216HW,2013-08-23 13:32:00,
2013-08-23 05:37:00,51.9,49.9,29.24,SSW,203,0.0,4.4,93,0.00,,,0.00,WUHU216HW,2013-08-23 13:37:00,
2013-08-23 05:42:00,51.9,49.9,29.24,SSW,203,0.0,0.0,93,0.00,,,0.00,WUHU216HW,2013-08-23 13:42:00,
2013-08-23 05:47:00,51.6,49.6,29.24,SSW,203,0.0,0.0,93,0.00,,,0.00,WUHU216HW,2013-08-23 13:47:00,
2013-08-23 05:52:00,51.6,49.6,29.24,SSW,203,0.0,0.0,93,0.00,,,0.00,WUHU216HW,2013-08-23 13:52:00,
2013-08-23 05:57:00,51.4,49.4,29.24,SSW,203,0.0,0.0,93,0.00,,,0.00,WUHU216HW,2013-08-23 13:57:00,
2013-08-23 06:02:00,51.2,49.2,29.24,SSW,203,0.0,0.0,93,0.00,,,0.00,WUHU216HW,2013-08-23 14:02:00,
2013-08-23 06:07:00,51.0,49.0,29.24,SSW,203,0.0,0.0,93,0.00,,,0.00,WUHU216HW,2013-08-23 14:07:00,
2013-08-23 06:12:00,50.9,48.8,29.24,SSW,203,0.0,0.0,93,0.00,,,0.00,WUHU216HW,2013-08-23 14:12:00,
2013-08-23 06:18:00,50.7,48.7,29.23,SSW,203,0.0,0.0,93,0.00,,,0.00,WUHU216HW,2013-08-23 14:18:00,
2013-08-23 06:23:00,50.5,48.5,29.23,SSW,203,0.0,0.0,93,0.00,,,0.00,WUHU216HW,2013-08-23 14:23:00,
2013-08-23 06:28:00,50.3,48.3,29.23,South,180,0.0,0.0,93,0.00,,,0.00,WUHU216HW,2013-08-23 14:28:00,
2013-08-23 06:33:00,50.1,48.1,29.23,South,180,0.0,0.0,93,0.00,,,0.00,WUHU216HW,2013-08-23 14:33:00,
2013-08-23 06:38:00,49.8,47.8,29.23,South,180,0.0,0.0,93,0.00,,,0.00,WUHU216HW,2013-08-23 14:38:00,
2013-08-23 06:43:00,49.8,47.8,29.23,South,180,0.0,0.0,93,0.00,,,0.00,WUHU216HW,2013-08-23 14:43:00,
2013-08-23 06:48:00,49.6,47.6,29.23,South,180,0.0,0.0,93,0.00,,,0.00,WUHU216HW,2013-08-23 14:48:00,
2013-08-23 06:53:00,49.2,47.3,29.23,South,180,0.0,0.0,93,0.00,,,0.00,WUHU216HW,2013-08-23 14:53:00,
2013-08-23 06:58:00,49.2,47.3,29.23,South,180,0.0,0.0,93,0.00,,,0.00,WUHU216HW,2013-08-23 14:58:00,
2013-08-23 07:03:00,49.1,47.1,29.22,South,180,0.0,0.0,93,0.00,,,0.00,WUHU216HW,2013-08-23 15:03:00,
2013-08-23 07:08:00,48.9,46.9,29.22,South,180,0.0,0.0,93,0.00,,,0.00,WUHU216HW,2013-08-23 15:08:00,
2013-08-23 07:13:00,48.9,46.9,29.22,South,180,0.0,0.0,93,0.00,,,0.00,WUHU216HW,2013-08-23 15:13:00,
2013-08-23 07:18:00,48.7,46.7,29.22,South,180,0.0,0.0,93,0.00,,,0.00,WUHU216HW,2013-08-23 15:18:00,
2013-08-23 07:23:00,48.7,46.7,29.22,South,180,0.6,0.6,93,0.00,,,0.00,WUHU216HW,2013-08-23 15:23:00,
2013-08-23 07:28:00,48.7,46.7,29.23,South,180,0.0,0.6,93,0.00,,,0.00,WUHU216HW,2013-08-23 15:28:00,
2013-08-23 07:33:00,48.9,46.9,29.23,South,180,0.0,0.6,93,0.00,,,0.00,WUHU216HW,2013-08-23 15:33:00,
2013-08-23 07:38:00,49.1,47.1,29.22,South,180,0.0,0.0,93,0.00,,,0.00,WUHU216HW,2013-08-23 15:38:00,
2013-08-23 07:43:00,49.1,47.1,29.22,South,180,0.0,0.0,93,0.00,,,0.00,WUHU216HW,2013-08-23 15:43:00,
2013-08-23 07:48:00,48.9,47.1,29.22,South,180,0.0,0.0,93,0.00,,,0.00,WUHU216HW,2013-08-23 15:48:00,
2013-08-23 07:53:00,49.1,47.1,29.22,South,180,0.0,0.0,93,0.00,,,0.00,WUHU216HW,2013-08-23 15:53:00,
2013-08-23 07:58:00,49.1,47.1,29.22,South,180,0.0,0.0,93,0.00,,,0.00,WUHU216HW,2013-08-23 15:58:00,
2013-08-23 08:03:00,49.2,47.6,29.22,South,180,0.0,0.0,93,0.00,,,0.00,WUHU216HW,2013-08-23 16:03:00,
2013-08-23 08:08:00,49.6,47.6,29.22,South,180,0.0,0.0,93,0.00,,,0.00,WUHU216HW,2013-08-23 16:08:00,
2013-08-23 08:13:00,49.8,47.8,29.22,South,180,0.0,0.0,93,0.00,,,0.00,WUHU216HW,2013-08-23 16:13:00,
2013-08-23 08:18:00,50.1,48.4,29.23,South,180,0.0,0.0,94,0.00,,,0.00,WUHU216HW,2013-08-23 16:18:00,
2013-08-23 08:23:00,50.1,48.4,29.22,South,180,0.0,0.0,94,0.00,,,0.00,WUHU216HW,2013-08-23 16:23:00,
2013-08-23 08:28:00,50.3,48.6,29.22,South,180,0.0,0.0,94,0.00,,,0.00,WUHU216HW,2013-08-23 16:28:00,
2013-08-23 08:33:00,50.7,48.9,29.22,South,180,1.3,1.3,94,0.00,,,0.00,WUHU216HW,2013-08-23 16:33:00,
2013-08-23 08:38:00,51.4,49.7,29.22,South,180,0.0,1.7,94,0.00,,,0.00,WUHU216HW,2013-08-23 16:38:00,
2013-08-23 08:43:00,51.6,49.6,29.22,South,180,0.0,1.7,93,0.00,,,0.00,WUHU216HW,2013-08-23 16:43:00,
2013-08-23 08:48:00,52.1,50.6,29.22,South,180,0.0,0.0,94,0.00,,,0.00,WUHU216HW,2013-08-23 16:48:00,
2013-08-23 08:53:00,52.5,50.7,29.22,South,180,0.0,0.0,94,0.00,,,0.00,WUHU216HW,2013-08-23 16:53:00,
2013-08-23 08:58:00,52.8,51.1,29.22,South,180,0.0,0.0,94,0.00,,,0.00,WUHU216HW,2013-08-23 16:58:00,
2013-08-23 09:03:00,53.2,51.5,29.22,South,180,0.0,0.0,94,0.00,,,0.00,WUHU216HW,2013-08-23 17:03:00,
2013-08-23 09:08:00,53.4,51.6,29.22,South,180,0.0,0.0,94,0.00,,,0.00,WUHU216HW,2013-08-23 17:08:00,
2013-08-23 09:13:00,53.9,52.2,29.22,South,180,0.0,0.0,94,0.00,,,0.00,WUHU216HW,2013-08-23 17:13:00,
2013-08-23 09:18:00,54.1,52.5,29.22,South,180,0.0,0.0,94,0.00,,,0.00,WUHU216HW,2013-08-23 17:18:00,
2013-08-23 09:23:00,54.6,52.9,29.22,South,180,0.0,0.0,94,0.00,,,0.00,WUHU216HW,2013-08-23 17:23:00,
2013-08-23 09:28:00,55.0,53.3,29.22,South,180,0.0,0.0,94,0.00,,,0.00,WUHU216HW,2013-08-23 17:28:00,
2013-08-23 09:33:00,55.2,53.4,29.22,South,180,0.0,0.8,94,0.00,,,0.00,WUHU216HW,2013-08-23 17:33:00,
2013-08-23 09:38:00,55.5,53.8,29.21,South,180,0.0,0.8,94,0.00,,,0.00,WUHU216HW,2013-08-23 17:38:00,
2013-08-23 09:43:00,56.1,54.3,29.22,South,180,0.0,0.0,94,0.00,,,0.00,WUHU216HW,2013-08-23 17:43:00,
2013-08-23 09:48:00,57.7,56.0,29.22,SSW,203,0.0,0.8,94,0.00,,,0.00,WUHU216HW,2013-08-23 17:48:00,
2013-08-23 09:53:00,61.1,59.4,29.21,SSE,158,0.0,2.6,94,0.00,,,0.00,WUHU216HW,2013-08-23 17:53:00,
2013-08-23 09:58:00,63.5,61.7,29.21,South,180,3.5,3.5,94,0.00,,,0.00,WUHU216HW,2013-08-23 17:58:00,
2013-08-23 10:03:00,64.9,61.1,29.21,SSW,203,0.0,3.5,86,0.00,,,0.00,WUHU216HW,2013-08-23 18:03:00,
2013-08-23 10:08:00,65.6,60.0,29.21,SSE,158,3.3,3.3,82,0.00,,,0.00,WUHU216HW,2013-08-23 18:08:00,
2013-08-23 10:13:00,66.7,60.4,29.22,SSW,203,0.0,3.3,80,0.00,,,0.00,WUHU216HW,2013-08-23 18:13:00,
2013-08-23 10:18:00,67.6,60.2,29.21,South,180,0.0,3.3,77,0.00,,,0.00,WUHU216HW,2013-08-23 18:18:00,
2013-08-23 10:23:00,69.4,61.8,29.21,SSW,203,0.0,0.4,77,0.00,,,0.00,WUHU216HW,2013-08-23 18:23:00,
2013-08-23 10:28:00,70.3,61.5,29.21,WNW,293,0.0,0.4,74,0.00,,,0.00,WUHU216HW,2013-08-23 18:28:00,
2013-08-23 10:33:00,69.8,60.6,29.21,West,270,0.0,0.0,73,0.00,,,0.00,WUHU216HW,2013-08-23 18:33:00,
2013-08-23 10:38:00,69.6,60.8,29.21,West,270,0.0,0.0,74,0.00,,,0.00,WUHU216HW,2013-08-23 18:38:00,
2013-08-23 10:43:00,68.7,59.7,29.21,WSW,248,0.0,1.5,73,0.00,,,0.00,WUHU216HW,2013-08-23 18:43:00,
2013-08-23 10:48:00,67.2,58.3,29.21,SSW,203,0.0,1.5,75,0.00,,,0.00,WUHU216HW,2013-08-23 18:48:00,
2013-08-23 10:53:00,65.4,57.6,29.21,SSW,203,0.0,0.0,76,0.00,,,0.00,WUHU216HW,2013-08-23 18:53:00,
2013-08-23 10:58:00,64.7,57.3,29.21,SSW,203,0.0,0.0,77,0.00,,,0.00,WUHU216HW,2013-08-23 18:58:00,
2013-08-23 11:03:00,64.0,57.0,29.21,SW,225,0.0,0.0,78,0.00,,,0.00,WUHU216HW,2013-08-23 19:03:00,
2013-08-23 11:08:00,63.5,56.8,29.21,SW,225,0.0,0.0,79,0.00,,,0.00,WUHU216HW,2013-08-23 19:08:00,
2013-08-23 11:13:00,63.5,56.4,29.21,SW,225,0.0,0.8,78,0.00,,,0.00,WUHU216HW,2013-08-23 19:13:00,
2013-08-23 11:18:00,63.5,56.8,29.21,SW,225,0.0,0.8,79,0.00,,,0.00,WUHU216HW,2013-08-23 19:18:00,
2013-08-23 11:23:00,63.6,57.0,29.21,SW,225,0.6,0.6,79,0.00,,,0.00,WUHU216HW,2013-08-23 19:23:00,
2013-08-23 11:28:00,63.6,57.0,29.21,SW,225,0.0,0.6,79,0.00,,,0.00,WUHU216HW,2013-08-23 19:28:00,
2013-08-23 11:33:00,64.0,57.3,29.20,SW,225,2.4,2.4,79,0.00,,,0.00,WUHU216HW,2013-08-23 19:33:00,
2013-08-23 11:38:00,64.0,57.0,29.20,WSW,248,1.1,2.4,78,0.00,,,0.00,WUHU216HW,2013-08-23 19:38:00,
2013-08-23 11:43:00,63.8,56.4,29.20,SW,225,0.0,2.4,77,0.00,,,0.00,WUHU216HW,2013-08-23 19:43:00,
2013-08-23 11:48:00,64.4,56.6,29.20,WNW,293,3.1,3.1,78,0.00,,,0.00,WUHU216HW,2013-08-23 19:48:00,
2013-08-23 11:53:00,66.3,59.3,29.20,West,270,2.4,3.1,78,0.00,,,0.00,WUHU216HW,2013-08-23 19:53:00,
2013-08-23 11:58:00,66.9,58.7,29.20,SSW,203,2.2,3.1,75,0.00,,,0.00,WUHU216HW,2013-08-23 19:58:00,
2013-08-23 12:03:00,67.2,58.5,29.20,SW,225,1.5,2.4,74,0.00,,,0.00,WUHU216HW,2013-08-23 20:03:00,
2013-08-23 12:08:00,66.9,57.5,29.20,SSW,203,0.0,1.5,72,0.00,,,0.00,WUHU216HW,2013-08-23 20:08:00,
2013-08-23 12:13:00,66.5,57.6,29.20,WSW,248,0.0,1.5,73,0.00,,,0.00,WUHU216HW,2013-08-23 20:13:00,
2013-08-23 12:18:00,66.0,56.7,29.20,SW,225,0.0,1.7,73,0.00,,,0.00,WUHU216HW,2013-08-23 20:18:00,
2013-08-23 12:23:00,65.1,56.6,29.21,West,270,0.0,1.7,74,0.00,,,0.00,WUHU216HW,2013-08-23 20:23:00,
2013-08-23 12:28:00,64.9,57.1,29.21,WNW,293,0.0,1.7,76,0.00,,,0.00,WUHU216HW,2013-08-23 20:28:00,
2013-08-23 12:33:00,64.7,57.0,29.21,SW,225,0.0,1.7,75,0.00,,,0.00,WUHU216HW,2013-08-23 20:33:00,
2013-08-23 12:38:00,64.7,57.0,29.20,SW,225,0.0,0.0,76,0.00,,,0.00,WUHU216HW,2013-08-23 20:38:00,
2013-08-23 12:43:00,64.7,57.0,29.20,SW,225,0.0,0.0,76,0.00,,,0.00,WUHU216HW,2013-08-23 20:43:00,
2013-08-23 12:48:00,64.9,57.1,29.20,WNW,293,0.0,0.0,76,0.00,,,0.00,WUHU216HW,2013-08-23 20:48:00,
2013-08-23 12:53:00,65.3,56.7,29.20,SSW,203,0.0,2.9,74,0.00,,,0.00,WUHU216HW,2013-08-23 20:53:00,
2013-08-23 12:58:00,65.4,56.9,29.20,WNW,293,0.0,2.9,74,0.00,,,0.00,WUHU216HW,2013-08-23 20:58:00,
2013-08-23 13:03:00,66.7,57.4,29.20,SSE,158,0.0,2.0,72,0.00,,,0.00,WUHU216HW,2013-08-23 21:03:00,
2013-08-23 13:08:00,66.9,57.5,29.21,SSW,203,0.0,1.1,72,0.00,,,0.00,WUHU216HW,2013-08-23 21:08:00,
2013-08-23 13:13:00,67.6,58.3,29.21,WSW,248,0.0,0.0,72,0.00,,,0.00,WUHU216HW,2013-08-23 21:13:00,
2013-08-23 13:18:00,67.8,58.4,29.20,West,270,0.0,0.0,71,0.00,,,0.00,WUHU216HW,2013-08-23 21:18:00,
2013-08-23 13:23:00,68.9,58.7,29.20,SSW,203,2.6,2.6,70,0.00,,,0.00,WUHU216HW,2013-08-23 21:23:00,
2013-08-23 13:28:00,71.6,61.3,29.20,NNW,338,0.8,2.6,70,0.00,,,0.00,WUHU216HW,2013-08-23 21:28:00,
2013-08-23 13:33:00,75.7,62.2,29.19,SW,225,0.0,2.6,63,0.00,,,0.00,WUHU216HW,2013-08-23 21:33:00,
2013-08-23 13:38:00,76.1,61.6,29.20,West,270,0.0,3.3,61,0.00,,,0.00,WUHU216HW,2013-08-23 21:38:00,
2013-08-23 13:43:00,74.4,60.1,29.20,West,270,0.0,3.3,61,0.00,,,0.00,WUHU216HW,2013-08-23 21:43:00,
2013-08-23 13:48:00,72.5,57.8,29.20,SSW,203,0.0,0.8,62,0.00,,,0.00,WUHU216HW,2013-08-23 21:48:00,
2013-08-23 13:53:00,72.6,59.7,29.19,SE,135,0.0,0.8,64,0.00,,,0.00,WUHU216HW,2013-08-23 21:53:00,
2013-08-23 13:58:00,75.0,61.5,29.19,West,270,0.0,0.0,63,0.00,,,0.00,WUHU216HW,2013-08-23 21:58:00,
2013-08-23 14:03:00,77.3,60.8,29.19,South,180,2.9,2.9,57,0.00,,,0.00,WUHU216HW,2013-08-23 22:03:00,
2013-08-23 14:08:00,76.4,59.0,29.19,SSW,203,0.0,2.9,55,0.00,,,0.00,WUHU216HW,2013-08-23 22:08:00,
2013-08-23 14:13:00,76.1,60.2,29.19,SSW,203,0.0,2.9,58,0.00,,,0.00,WUHU216HW,2013-08-23 22:13:00,
2013-08-23 14:18:00,78.0,61.0,29.19,South,180,0.6,6.4,56,0.00,,,0.00,WUHU216HW,2013-08-23 22:18:00,
2013-08-23 14:23:00,79.3,62.2,29.19,SSW,203,1.3,6.4,56,0.00,,,0.00,WUHU216HW,2013-08-23 22:23:00,
2013-08-23 14:28:00,81.1,62.8,29.19,WNW,293,5.1,5.1,54,0.00,,,0.00,WUHU216HW,2013-08-23 22:28:00,
2013-08-23 14:33:00,82.2,60.4,29.19,SW,225,4.9,5.1,48,0.00,,,0.00,WUHU216HW,2013-08-23 22:33:00,
2013-08-23 14:38:00,81.3,60.2,29.19,WSW,248,0.0,4.9,49,0.00,,,0.00,WUHU216HW,2013-08-23 22:38:00,
2013-08-23 14:43:00,79.1,58.9,29.19,South,180,3.1,4.9,50,0.00,,,0.00,WUHU216HW,2013-08-23 22:43:00,
2013-08-23 14:48:00,77.5,59.0,29.18,SSW,203,0.0,3.1,53,0.00,,,0.00,WUHU216HW,2013-08-23 22:48:00,
2013-08-23 14:53:00,77.1,58.6,29.19,SW,225,2.6,2.6,53,0.00,,,0.00,WUHU216HW,2013-08-23 22:53:00,
2013-08-23 14:58:00,75.9,57.5,29.18,SW,225,4.4,4.4,53,0.00,,,0.00,WUHU216HW,2013-08-23 22:58:00,
2013-08-23 15:03:00,77.7,58.6,29.19,WSW,248,0.0,4.4,52,0.00,,,0.00,WUHU216HW,2013-08-23 23:03:00,
2013-08-23 15:08:00,79.5,59.8,29.18,South,180,2.9,2.9,51,0.00,,,0.00,WUHU216HW,2013-08-23 23:08:00,
2013-08-23 15:13:00,80.6,59.6,29.18,SSW,203,0.6,2.9,49,0.00,,,0.00,WUHU216HW,2013-08-23 23:13:00,
2013-08-23 15:18:00,77.9,57.8,29.18,South,180,0.0,2.9,50,0.00,,,0.00,WUHU216HW,2013-08-23 23:18:00,
2013-08-23 15:23:00,76.4,57.5,29.18,SW,225,0.0,0.0,52,0.00,,,0.00,WUHU216HW,2013-08-23 23:23:00,
2013-08-23 15:28:00,77.5,59.0,29.17,WNW,293,1.3,1.3,53,0.00,,,0.00,WUHU216HW,2013-08-23 23:28:00,
2013-08-23 15:33:00,80.2,59.9,29.17,WNW,293,0.0,2.0,50,0.00,,,0.00,WUHU216HW,2013-08-23 23:33:00,
2013-08-23 15:38:00,82.0,59.7,29.17,SSW,203,0.0,2.2,47,0.00,,,0.00,WUHU216HW,2013-08-23 23:38:00,
2013-08-23 15:43:00,82.0,59.7,29.17,South,180,0.0,2.2,47,0.00,,,0.00,WUHU216HW,2013-08-23 23:43:00,
2013-08-23 15:48:00,79.1,57.1,29.17,WNW,293,3.3,3.3,47,0.00,,,0.00,WUHU216HW,2013-08-23 23:48:00,
2013-08-23 15:53:00,76.8,55.6,29.17,West,270,1.3,3.3,48,0.00,,,0.00,WUHU216HW,2013-08-23 23:53:00,
2013-08-23 15:58:00,75.0,55.2,29.17,WNW,293,1.1,3.3,50,0.00,,,0.00,WUHU216HW,2013-08-23 23:58:00,
2013-08-23 16:03:00,72.8,53.6,29.17,SSW,203,2.0,4.2,51,0.00,,,0.00,WUHU216HW,2013-08-24 00:03:00,
2013-08-23 16:08:00,71.4,52.8,29.17,WNW,293,2.0,4.2,52,0.00,,,0.00,WUHU216HW,2013-08-24 00:08:00,
2013-08-23 16:13:00,70.3,52.3,29.17,WNW,293,3.5,3.5,53,0.00,,,0.00,WUHU216HW,2013-08-24 00:13:00,
2013-08-23 16:18:00,69.0,52.1,29.17,WNW,293,2.0,3.5,55,0.00,,,0.00,WUHU216HW,2013-08-24 00:18:00,
2013-08-23 16:23:00,69.2,52.3,29.17,WNW,293,0.0,3.1,55,0.00,,,0.00,WUHU216HW,2013-08-24 00:23:00,
2013-08-23 16:28:00,69.4,52.0,29.16,West,270,0.6,2.0,54,0.00,,,0.00,WUHU216HW,2013-08-24 00:28:00,
2013-08-23 16:33:00,69.6,52.1,29.16,WNW,293,0.8,3.5,54,0.00,,,0.00,WUHU216HW,2013-08-24 00:33:00,
2013-08-23 16:38:00,69.6,52.1,29.16,NW,315,0.0,3.5,54,0.00,,,0.00,WUHU216HW,2013-08-24 00:38:00,
2013-08-23 16:43:00,69.2,51.8,29.16,WNW,293,0.6,0.8,54,0.00,,,0.00,WUHU216HW,2013-08-24 00:43:00,
2013-08-23 16:48:00,69.0,50.7,29.16,West,270,1.3,1.3,52,0.00,,,0.00,WUHU216HW,2013-08-24 00:48:00,
2013-08-23 16:53:00,68.9,50.5,29.16,WNW,293,1.7,1.7,52,0.00,,,0.00,WUHU216HW,2013-08-24 00:53:00,
2013-08-23 16:58:00,68.7,50.8,29.15,SW,225,0.0,2.0,53,0.00,,,0.00,WUHU216HW,2013-08-24 00:58:00,
2013-08-23 17:03:00,68.1,50.8,29.16,NW,315,3.8,3.8,54,0.00,,,0.00,WUHU216HW,2013-08-24 01:03:00,
2013-08-23 17:08:00,67.6,50.8,29.15,WNW,293,0.0,3.8,55,0.00,,,0.00,WUHU216HW,2013-08-24 01:08:00,
2013-08-23 17:13:00,66.9,51.1,29.15,NW,315,0.0,3.8,57,0.00,,,0.00,WUHU216HW,2013-08-24 01:13:00,
2013-08-23 17:18:00,66.3,51.6,29.15,WNW,293,0.0,1.7,59,0.00,,,0.00,WUHU216HW,2013-08-24 01:18:00,
2013-08-23 17:23:00,66.0,51.3,29.15,SW,225,0.0,1.7,59,0.00,,,0.00,WUHU216HW,2013-08-24 01:23:00,
2013-08-23 17:28:00,66.0,51.3,29.15,West,270,0.0,0.0,59,0.00,,,0.00,WUHU216HW,2013-08-24 01:28:00,
2013-08-23 17:33:00,66.0,51.3,29.15,West,270,2.2,2.2,59,0.00,,,0.00,WUHU216HW,2013-08-24 01:33:00,
2013-08-23 17:38:00,66.2,51.4,29.14,WNW,293,2.6,2.6,59,0.00,,,0.00,WUHU216HW,2013-08-24 01:38:00,
2013-08-23 17:43:00,66.3,52.1,29.15,WNW,293,1.3,2.6,60,0.00,,,0.00,WUHU216HW,2013-08-24 01:43:00,
2013-08-23 17:48:00,66.3,52.1,29.14,WNW,293,0.4,1.5,60,0.00,,,0.00,WUHU216HW,2013-08-24 01:48:00,
2013-08-23 17:53:00,66.3,52.5,29.15,West,270,0.0,1.5,61,0.00,,,0.00,WUHU216HW,2013-08-24 01:53:00,
2013-08-23 17:58:00,66.3,52.5,29.15,WNW,293,1.5,1.5,61,0.00,,,0.00,WUHU216HW,2013-08-24 01:58:00,
2013-08-23 18:03:00,66.2,52.3,29.15,West,270,1.1,2.6,61,0.00,,,0.00,WUHU216HW,2013-08-24 02:03:00,
2013-08-23 18:08:00,66.2,52.2,29.15,WNW,293,1.5,4.4,61,0.00,,,0.00,WUHU216HW,2013-08-24 02:08:00,
2013-08-23 18:13:00,66.0,52.2,29.14,WNW,293,4.4,4.4,61,0.00,,,0.00,WUHU216HW,2013-08-24 02:13:00,
2013-08-23 18:18:00,66.0,52.2,29.14,WNW,293,0.0,4.4,61,0.00,,,0.00,WUHU216HW,2013-08-24 02:18:00,
2013-08-23 18:23:00,66.0,52.2,29.14,NW,315,4.0,8.7,61,0.00,,,0.00,WUHU216HW,2013-08-24 02:23:00,
2013-08-23 18:28:00,66.0,52.2,29.14,NW,315,1.5,8.7,61,0.00,,,0.00,WUHU216HW,2013-08-24 02:28:00,
2013-08-23 18:33:00,65.6,51.4,29.14,West,270,0.6,4.0,60,0.00,,,0.00,WUHU216HW,2013-08-24 02:33:00,
2013-08-23 18:38:00,65.4,51.2,29.14,West,270,0.0,1.3,60,0.00,,,0.00,WUHU216HW,2013-08-24 02:38:00,
2013-08-23 18:43:00,65.4,51.2,29.14,WNW,293,0.0,1.1,60,0.00,,,0.00,WUHU216HW,2013-08-24 02:43:00,
2013-08-23 18:48:00,65.3,51.0,29.14,WSW,248,0.0,5.5,60,0.00,,,0.00,WUHU216HW,2013-08-24 02:48:00,
2013-08-23 18:53:00,65.3,51.0,29.14,WSW,248,0.0,5.5,60,0.00,,,0.00,WUHU216HW,2013-08-24 02:53:00,
2013-08-23 18:58:00,65.3,51.0,29.14,WNW,293,0.8,3.1,60,0.00,,,0.00,WUHU216HW,2013-08-24 02:58:00,
2013-08-23 19:03:00,65.1,50.9,29.14,WNW,293,0.0,3.1,60,0.00,,,0.00,WUHU216HW,2013-08-24 03:03:00,
2013-08-23 19:08:00,65.1,51.3,29.14,WNW,293,0.0,3.8,61,0.00,,,0.00,WUHU216HW,2013-08-24 03:08:00,
2013-08-23 19:13:00,64.7,50.9,29.14,WNW,293,0.6,3.8,61,0.00,,,0.00,WUHU216HW,2013-08-24 03:13:00,
2013-08-23 19:18:00,64.5,51.2,29.14,WNW,293,0.0,0.6,62,0.00,,,0.00,WUHU216HW,2013-08-24 03:18:00,
2013-08-23 19:23:00,64.5,51.2,29.14,West,270,0.8,0.8,62,0.00,,,0.00,WUHU216HW,2013-08-24 03:23:00,
2013-08-23 19:28:00,64.2,51.2,29.14,WNW,293,2.0,2.4,63,0.00,,,0.00,WUHU216HW,2013-08-24 03:28:00,
2013-08-23 19:33:00,64.0,51.1,29.14,WNW,293,0.6,3.8,63,0.00,,,0.00,WUHU216HW,2013-08-24 03:33:00,
2013-08-23 19:38:00,64.0,50.9,29.15,WNW,293,1.5,7.3,63,0.00,,,0.00,WUHU216HW,2013-08-24 03:38:00,
2013-08-23 19:43:00,63.5,51.0,29.15,WNW,293,1.3,7.3,64,0.00,,,0.00,WUHU216HW,2013-08-24 03:43:00,
2013-08-23 19:48:00,63.1,50.7,29.15,NW,315,7.3,7.3,64,0.00,,,0.00,WUHU216HW,2013-08-24 03:48:00,
2013-08-23 19:53:00,62.9,50.5,29.14,WNW,293,0.2,7.3,64,0.00,,,0.00,WUHU216HW,2013-08-24 03:53:00,
2013-08-23 19:58:00,62.6,50.2,29.14,West,270,1.7,2.0,64,0.00,,,0.00,WUHU216HW,2013-08-24 03:58:00,
2013-08-23 20:01:00,62.4,50.0,29.14,WNW,293,1.3,2.0,64,0.00,,,0.00,WUHU216HW,2013-08-24 04:01:00,
2013-08-23 20:06:00,62.4,50.4,29.15,NW,315,0.0,1.7,65,0.00,,,0.00,WUHU216HW,2013-08-24 04:06:00,
2013-08-23 20:11:00,62.2,50.3,29.14,WNW,293,0.0,1.3,66,0.00,,,0.00,WUHU216HW,2013-08-24 04:11:00,
2013-08-23 20:16:00,61.7,50.2,29.15,WNW,293,0.0,1.3,66,0.00,,,0.00,WUHU216HW,2013-08-24 04:16:00,
2013-08-23 20:21:00,61.5,50.0,29.15,WNW,293,2.6,2.6,66,0.00,,,0.00,WUHU216HW,2013-08-24 04:21:00,
2013-08-23 20:26:00,61.3,49.9,29.15,NW,315,0.0,2.6,67,0.00,,,0.00,WUHU216HW,2013-08-24 04:26:00,
2013-08-23 20:31:00,60.9,50.0,29.15,WNW,293,0.0,3.3,67,0.00,,,0.00,WUHU216HW,2013-08-24 04:31:00,
2013-08-23 20:36:00,60.8,49.8,29.15,WNW,293,0.0,3.3,67,0.00,,,0.00,WUHU216HW,2013-08-24 04:36:00,
2013-08-23 20:41:00,60.6,50.0,29.15,West,270,0.0,0.0,68,0.00,,,0.00,WUHU216HW,2013-08-24 04:41:00,
2013-08-23 20:46:00,60.4,50.3,29.15,West,270,0.0,0.0,69,0.00,,,0.00,WUHU216HW,2013-08-24 04:46:00,
2013-08-23 20:51:00,60.4,50.7,29.16,West,270,0.0,0.0,70,0.00,,,0.00,WUHU216HW,2013-08-24 04:51:00,
2013-08-23 20:56:00,59.9,50.1,29.16,West,270,0.0,0.0,70,0.00,,,0.00,WUHU216HW,2013-08-24 04:56:00,
2013-08-23 21:01:00,59.3,50.3,29.16,West,270,0.0,0.0,72,0.00,,,0.00,WUHU216HW,2013-08-24 05:01:00,
2013-08-23 21:06:00,58.8,49.8,29.16,West,270,0.0,0.0,72,0.00,,,0.00,WUHU216HW,2013-08-24 05:06:00,
2013-08-23 21:11:00,58.6,49.6,29.16,West,270,0.0,0.0,73,0.00,,,0.00,WUHU216HW,2013-08-24 05:11:00,
2013-08-23 21:16:00,57.7,49.4,29.16,West,270,0.0,0.0,74,0.00,,,0.00,WUHU216HW,2013-08-24 05:16:00,
2013-08-23 21:21:00,57.5,49.2,29.16,West,270,0.0,0.0,74,0.00,,,0.00,WUHU216HW,2013-08-24 05:21:00,
2013-08-23 21:26:00,57.0,48.9,29.16,West,270,0.0,0.0,75,0.00,,,0.00,WUHU216HW,2013-08-24 05:26:00,
2013-08-23 21:31:00,56.8,49.2,29.16,West,270,0.0,0.0,76,0.00,,,0.00,WUHU216HW,2013-08-24 05:31:00,
2013-08-23 21:36:00,56.4,49.2,29.16,West,270,0.0,0.0,77,0.00,,,0.00,WUHU216HW,2013-08-24 05:36:00,
2013-08-23 21:41:00,56.3,49.1,29.16,West,270,0.0,0.0,77,0.00,,,0.00,WUHU216HW,2013-08-24 05:41:00,
2013-08-23 21:46:00,55.9,49.1,29.17,West,270,0.0,0.0,78,0.00,,,0.00,WUHU216HW,2013-08-24 05:46:00,
2013-08-23 21:51:00,55.9,49.1,29.17,West,270,0.0,0.0,78,0.00,,,0.00,WUHU216HW,2013-08-24 05:51:00,
2013-08-23 21:56:00,55.5,48.9,29.17,West,270,0.0,0.0,78,0.00,,,0.00,WUHU216HW,2013-08-24 05:56:00,
2013-08-23 22:01:00,55.5,48.7,29.17,West,270,0.0,0.0,78,0.00,,,0.00,WUHU216HW,2013-08-24 06:01:00,
2013-08-23 22:06:00,55.4,48.5,29.18,West,270,0.0,0.0,78,0.00,,,0.00,WUHU216HW,2013-08-24 06:06:00,
2013-08-23 22:11:00,55.2,48.7,29.18,West,270,0.0,0.0,79,0.00,,,0.00,WUHU216HW,2013-08-24 06:11:00,
2013-08-23 22:16:00,55.2,48.7,29.18,West,270,0.0,0.0,79,0.00,,,0.00,WUHU216HW,2013-08-24 06:16:00,
2013-08-23 22:21:00,55.2,48.7,29.17,West,270,0.0,0.0,79,0.00,,,0.00,WUHU216HW,2013-08-24 06:21:00,
2013-08-23 22:26:00,55.0,48.9,29.18,West,270,0.0,0.0,80,0.00,,,0.00,WUHU216HW,2013-08-24 06:26:00,
2013-08-23 22:31:00,54.8,48.7,29.18,West,270,0.0,0.0,80,0.00,,,0.00,WUHU216HW,2013-08-24 06:31:00,
2013-08-23 22:36:00,54.6,48.6,29.18,West,270,0.0,0.0,80,0.00,,,0.00,WUHU216HW,2013-08-24 06:36:00,
2013-08-23 22:41:00,54.1,48.1,29.18,West,270,0.0,0.0,80,0.00,,,0.00,WUHU216HW,2013-08-24 06:41:00,
2013-08-23 22:46:00,53.9,47.9,29.18,West,270,0.0,0.0,80,0.00,,,0.00,WUHU216HW,2013-08-24 06:46:00,
2013-08-23 22:51:00,53.4,47.7,29.18,West,270,0.0,0.0,81,0.00,,,0.00,WUHU216HW,2013-08-24 06:51:00,
2013-08-23 22:56:00,53.4,48.0,29.18,West,270,0.0,0.0,82,0.00,,,0.00,WUHU216HW,2013-08-24 06:56:00,
2013-08-23 23:01:00,52.8,47.5,29.18,SSE,158,0.0,0.0,82,0.00,,,0.00,WUHU216HW,2013-08-24 07:01:00,
2013-08-23 23:06:00,52.7,47.3,29.18,SSE,158,0.0,0.0,82,0.00,,,0.00,WUHU216HW,2013-08-24 07:06:00,
2013-08-23 23:11:00,52.3,47.3,29.18,SSE,158,0.0,0.0,83,0.00,,,0.00,WUHU216HW,2013-08-24 07:11:00,
2013-08-23 23:16:00,52.1,47.1,29.18,SSE,158,0.0,0.0,83,0.00,,,0.00,WUHU216HW,2013-08-24 07:16:00,
2013-08-23 23:21:00,51.9,46.9,29.18,SSE,158,0.0,0.0,83,0.00,,,0.00,WUHU216HW,2013-08-24 07:21:00,